Weather History for Vero Beach, FL

Change the Weather History Date:

Wednesday, November 14, 2012

  Actual Average Record
Temperature  
Mean Temperature 71 °F 70 °F  
Max Temperature 80 °F 79 °F 85 °F (1972)
Min Temperature 62 °F 62 °F 40 °F (1975)
Degree Days  
Heating Degree Days 0 1  
Month to date heating degree days 15 6  
Since 1 July heating degree days 32 9  
Cooling Degree Days 6 6  
Month to date cooling degree days 46 100  
Year to date cooling degree days 3391 3228  
Growing Degree Days 21 (Base 50)    
Moisture  
Dew Point 66 °F    
Average Humidity 81    
Maximum Humidity 100    
Minimum Humidity 62    
Precipitation  
Precipitation 0.48 in 0.12 in 3.68 in (1954)
Month to date precipitation 0.67 1.69  
Year to date precipitation 46.21 48.09  
Sea Level Pressure  
Sea Level Pressure 30.11 in    
Wind  
Wind Speed 6 mph (NNW)    
Max Wind Speed 14 mph    
Max Gust Speed 18 mph    
Visibility 9 miles    
Events Rain , Thunderstorm    
T = Trace of Precipitation, MM = Missing Value Source: NWS Daily Summary

Daily Weather History Graph

Daily Weather History Graph

Search for Another Location

Airport:

Trip Planner

Search our weather history database for the weather conditions in past years. The results will help you decide how hot, cold, wet, or windy it might be!

Date:

Astronomy

Nov. 14, 2012 Rise Set
Actual Time 6:42 AM EST 5:29 PM EST
Civil Twilight 6:17 AM EST 5:54 PM EST
Nautical Twilight 5:49 AM EST 6:22 PM EST
Astronomical Twilight 5:21 AM EST 6:50 PM EST
Moon 7:25 AM EST (11/14) 6:22 PM EST (11/14)
Length of Visible Light 11h 36m
Length of Day
10h 47m
New Moon, 1% of the Moon is Illuminated
Nov 14
New Moon
Nov 20
First Quarter
Nov 28
Full
Dec 6
Last Quarter
Dec 13
New

Hourly Weather History & Observations

Time (EST) Temp. Dew Point Humidity Pressure Visibility Wind Dir Wind Speed Gust Speed Precip Events Conditions
12:06 AM 69.8 °F 66.2 °F 88% 30.11 in 1.8 mi ENE 8.1 mph 18.4 mph 0.09 in Rain Heavy Rain
12:19 AM 68.0 °F 66.2 °F 94% 30.11 in 1.5 mi NW 6.9 mph - 0.47 in Rain Rain
12:23 AM 68.0 °F 66.2 °F 94% 30.11 in 3.0 mi NW 9.2 mph - 0.48 in Rain Light Rain
12:53 AM 68.0 °F 66.9 °F 96% 30.12 in 10.0 mi NW 8.1 mph - 0.48 in   Overcast
1:53 AM 66.9 °F 66.0 °F 97% 30.09 in 10.0 mi NNW 5.8 mph - N/A   Clear
2:53 AM 64.9 °F 64.9 °F 100% 30.09 in 10.0 mi NNW 5.8 mph - N/A   Partly Cloudy
3:53 AM 64.0 °F 64.0 °F 100% 30.09 in 10.0 mi Calm Calm - N/A   Clear
4:53 AM 64.0 °F 64.0 °F 100% 30.09 in 10.0 mi Calm Calm - N/A   Clear
5:53 AM 64.0 °F 64.0 °F 100% 30.10 in 10.0 mi NNW 3.5 mph - N/A   Mostly Cloudy
6:53 AM 64.9 °F 64.9 °F 100% 30.11 in 10.0 mi Calm Calm - N/A   Partly Cloudy
7:53 AM 68.0 °F 68.0 °F 100% 30.13 in 9.0 mi NW 4.6 mph - N/A   Partly Cloudy
8:53 AM 71.1 °F 68.0 °F 90% 30.15 in 10.0 mi NNW 5.8 mph - 0.00 in   Partly Cloudy
9:53 AM 75.9 °F 69.1 °F 79% 30.15 in 10.0 mi North 5.8 mph - N/A   Scattered Clouds
10:53 AM 75.0 °F 68.0 °F 79% 30.14 in 10.0 mi North 11.5 mph - N/A   Mostly Cloudy
11:53 AM 75.0 °F 68.0 °F 79% 30.13 in 10.0 mi North 8.1 mph - N/A   Partly Cloudy
12:53 PM 78.1 °F 66.9 °F 68% 30.11 in 10.0 mi North 9.2 mph - N/A   Partly Cloudy
1:53 PM 75.0 °F 66.9 °F 76% 30.09 in 10.0 mi North 9.2 mph - N/A   Mostly Cloudy
2:53 PM 78.1 °F 64.9 °F 64% 30.09 in 10.0 mi ENE 9.2 mph - N/A   Mostly Cloudy
3:24 PM 75.2 °F 64.4 °F 69% 30.10 in 10.0 mi North 12.7 mph 18.4 mph N/A Rain , Thunderstorm Light Rain
3:53 PM 73.0 °F 66.0 °F 79% 30.10 in 10.0 mi North 8.1 mph - 0.00 in Rain Light Rain
4:53 PM 73.9 °F 66.9 °F 79% 30.09 in 10.0 mi NNW 4.6 mph - 0.00 in   Mostly Cloudy
5:53 PM 72.0 °F 66.9 °F 84% 30.10 in 10.0 mi Calm Calm - N/A   Mostly Cloudy
6:53 PM 70.0 °F 66.0 °F 87% 30.11 in 6.0 mi NW 9.2 mph - 0.01 in Rain Light Rain
7:53 PM 69.1 °F 66.9 °F 93% 30.12 in 10.0 mi NW 3.5 mph - 0.00 in   Mostly Cloudy
8:53 PM 68.0 °F 66.0 °F 93% 30.13 in 10.0 mi NW 3.5 mph - N/A   Scattered Clouds
9:53 PM 68.0 °F 66.9 °F 96% 30.13 in 10.0 mi NW 5.8 mph - N/A   Mostly Cloudy
10:53 PM 66.9 °F 66.0 °F 97% 30.13 in 10.0 mi NW 8.1 mph - N/A   Partly Cloudy
11:53 PM 64.9 °F 64.9 °F 100% 30.11 in 10.0 mi NW 5.8 mph - N/A   Clear